Other Public Products
Issued by NWS Grand Forks, ND

Home | Current Version | Previous Version | Graphics & Text | Print | Product List | Glossary On
Versions: 1 2 3 4 5 6 7 8 9 10 11 12 13 14 15 16 17 18 19 20 21 22 23 24 25 26 27 28 29 30 31 32 33 34 35 36 37 38 39 40 41 42 43 44 45 46 47 48 49 50
000
FPUS83 KFGF 142231
OPUFGF
PRAIRIE TO PINES WEATHER ROUNDUP
NATIONAL WEATHER SERVICE EASTERN NORTH DAKOTA/GRAND FORKS ND
500 PM CDT SUN SEP 14 2014

 **SATELLITE DATA USED TO AUGMENT SKY COVER AT AUTOMATED STATIONS**
 *****  WEATHER ACROSS EASTERN NORTH DAKOTA  *****

CITY           SKY/WX    TMP DP  RH WIND       PRES   REMARKS
GRAND FORKS    PTSUNNY   57  43  59 N7        30.10R
GRAND FORKS AF CLOUDY    57  38  50 NW12      30.11R
GRAND CITY NWS   N/A     55 N/A N/A NW2         N/A
BUXTON           N/A     57  42  57 W5          N/A
DEVILS LAKE    CLOUDY    54  34  47 NW8       30.10F
FARGO          PTSUNNY   59  41  51 MISG      30.11R
WAHPETON ARPT  CLOUDY    59  39  47 N7        30.11S
$$

 *****  WEATHER ACROSS CENTRAL AND WESTERN NORTH DAKOTA  *****

CITY           SKY/WX    TMP DP  RH WIND       PRES   REMARKS
JAMESTOWN      MOSUNNY   57  40  52 N5        30.11F
BISMARCK       MOSUNNY   60  33  36 N9        30.14S
MINOT          CLOUDY    56  33  42 NW5       30.13S
MINOT AFB      CLOUDY    55  32  42 N9        30.13S
GARRISON         N/A     56  33  42 N12       30.13S
WILLISTON      CLOUDY    57  31  37 E5        30.15S
DICKINSON      CLOUDY    54  29  38 CALM      30.13S
HETTINGER      PTSUNNY   57  28  33 VRB3      30.13F
$$

 *****  OTHER OBSERVATIONS NORTHEAST NORTH DAKOTA  *****

CITY           SKY/WX    TMP DP  RH WIND       PRES   REMARKS
WALHALLA         N/A     54  37  54 NW12      30.11R
LANGDON        CLOUDY    54  36  50 NW13G20   30.10S
CAVALIER       CLOUDY    55  37  50 N10       30.10R
GRAFTON        CLOUDY    55  39  54 NW12      30.10S
CANDO          CLOUDY    54  36  50 N10       30.12S
FORT TOTTEN    NOT AVBL
ROLLA          CLOUDY    50  32  50 N9        30.13S
RUGBY          MOCLDY    54  36  50 N9        30.13S
 ***** THE ABOVE OBSERVATIONS ARE NON NWS ARE NOT QUALITY
        CONTROLLED AND MAY MIS-REPORT RAIN FOR SNOW...
$$

 *****  OTHER OBSERVATIONS SOUTHEAST NORTH DAKOTA *****

CITY           SKY/WX    TMP DP  RH WIND       PRES   REMARKS
COOPERSTOWN    NOT AVBL
VALLEY CITY    CLOUDY    55  39  54 NW8       30.12S
OAKES            N/A     57  39  51 NW7       30.13S
GWINNER        MOCLDY    59  39  47 W6        30.14R
BUFFALO          N/A     56  33  41 NW9         N/A
WYNDMERE         N/A     57  41  54 NW6         N/A
 ***** THE ABOVE OBSERVATIONS ARE NON NWS ARE NOT QUALITY
       CONTROLLED AND MAY MIS-REPORT RAIN FOR SNOW...
$$

  *****  WEATHER ACROSS NORTHERN MINNESOTA  *****

CITY           SKY/WX    TMP DP  RH WIND       PRES   REMARKS
FLAG ISLAND    PTSUNNY   52  45  76 W9        30.03R
WARROAD        PTSUNNY   52  48  87 W7        30.06R
ROSEAU         PTSUNNY   50  45  81 NW12      30.06S
HALLOCK          N/A     55  41  58 NW12G18   30.09S
THF RVR FALLS  CLOUDY    52  45  76 W7        30.09S
HALSTAD          N/A     57  36  44 N3          N/A
FOSSTON        MOSUNNY   57  43  58 CALM      30.10S
BAUDETTE       CLOUDY    54  42  64 VRB6      30.04R
WASKISH        SUNNY     57  46  67 SW5G17    30.05S
CROOKSTON      LGT RAIN  55  45  67 NW7       30.11R
$$
  *****  WEATHER ACROSS CENTRAL AND WEST MINNESOTA  *****

CITY           SKY/WX    TMP DP  RH WIND       PRES   REMARKS
BEMIDJI        PTSUNNY   54  43  66 W15       30.09R
PARK RAPIDS    CLOUDY    53  43  68 NW9       30.10R
WADENA         CLOUDY    54  43  66 W3        30.11S
DETROIT LAKES  PTSUNNY   55  43  62 NW6       30.12S
MOORHEAD       PTSUNNY   57  43  58 N5        30.12R
FERGUS FALLS   CLOUDY    57  39  51 NW3       30.12R
ELBOW LAKE     MOCLDY    56  41  57 W5        30.12S
MORRIS MN      PTSUNNY   61  41  48 NW6       30.12S
STAPLES        CLOUDY    54  43  66 W6        30.11R
WHEATON        PTSUNNY   57  39  51 CALM      30.14R
$$
  *****  WEATHER ELSEWHERE ACROSS MINNESOTA  *****

CITY           SKY/WX    TMP DP  RH WIND       PRES   REMARKS
DULUTH         PTSUNNY   58  42  55 NW12      30.04S
INTRNTL FALLS  LGT RAIN  52  46  80 NE3       30.02R
ELY            PTSUNNY   50  45  81 W5        30.02S
CLOQUET        PTSUNNY   57  39  51 W13       30.06R
BRAINERD       CLOUDY    54  43  66 NW9       30.11R
HIBBING        SUNNY     58  42  55 W7        30.04S
ALEXANDRIA     PTSUNNY   55  42  61 NW7       30.13S
SAINT CLOUD    PTSUNNY   61  42  49 NW14      30.10R
MINNEAPOLIS    PTSUNNY   63  37  38 W9        30.10S
$$

  *****  WEATHER ACROSS SOUTH DAKOTA  *****

CITY           SKY/WX    TMP DP  RH WIND       PRES   REMARKS
SIOUX FALLS    CLOUDY    67  45  45 CALM      30.11S
BROOKINGS      NOT AVBL
WATERTOWN      CLOUDY    57  36  45 NW8       30.12F
HURON          LGT RAIN  53  43  68 NE7       30.13S
SISSETON         N/A     59  39  47 VRB6      30.11F
ABERDEEN       MOSUNNY   59  38  45 N7        30.12S
MITCHELL       CLOUDY    58  44  60 N7        30.13S
PIERRE         CLOUDY    55  38  52 NE6       30.12R
MOBRIDGE       PTSUNNY   57  37  47 E3        30.11S
RAPID CITY     PTSUNNY   54  39  57 E9        30.11F
$$

  *****  SOME WEATHER IN NEARBY STATES *****

CITY           SKY/WX    TMP DP  RH WIND       PRES   REMARKS
GLASGOW MT     CLOUDY    58  33  39 SE6       30.14S
GREAT FALLS MT SUNNY     65  35  33 NE5       30.11S
CHEYENNE WY    PTSUNNY   75  27  17 N23G40    30.06F
SCOTTSBLUFF NE MOSUNNY   70  51  51 NE12      30.01S
OMAHA NE       PTSUNNY   71  48  43 S15       30.08F
DES MOINES IA  PTSUNNY   69  49  48 S9        30.12F
DAVENPORT IA   MOSUNNY   65  44  46 S8        30.18F
CHICAGO IL     MOSUNNY   64  42  44 SW12      30.18F
EAU CLAIRE WI  SUNNY     65  40  39 W12       30.08S
LA CROSSE WI   PTSUNNY   70  49  47 SW12      30.08F
$$

  *****  SOME NATIONAL WEATHER *****

CITY           SKY/WX    TMP DP  RH WIND       PRES   REMARKS
LA GUARDIA NY  PTSUNNY   68  43  40 E8        30.17F
RALEIGH NC     PTSUNNY   68  58  70 NE5       30.22F
ATLANTA GA     CLOUDY    72  66  81 E10       30.18R
NEW ORLEANS LA MOSUNNY   89  72  56 NE8       30.04F HX  96
OKLAHOMA CITY  LGT RAIN  72  62  71 S10       30.14S
ALBUQUERQUE NM MOSUNNY   81  52  36 SW14G22   30.15F
SALT LAKE CITY CLOUDY    85  35  16 N10       29.99F
LOS ANGELES CA MOSUNNY   81  64  56 W17       29.71F
BOISE ID       SUNNY     84  33  16 N6        29.93F
SEATTLE WA     SUNNY     83  44  25 NW7       29.89F
$$

*** WEATHER ACROSS MANITOBA...SASKATCHEWAN AND ONTARIO ***
                ***ONTARIO***

CITY           SKY/WX    TMP DP  RH WIND       PRES   REMARKS
GERALDTON      PTSUNNY   48  48 100 S6        29.90S
THUNDER BAY    PTSUNNY   54  48  82 W14       29.94R
SIOUX LOOKOUT  PTSUNNY   50  48  93 S2        29.96F
TORONTO        PTSUNNY   57  43  58 SE9       30.23F
BIG TROUT LK   LGT RAIN  45  39  81 NW7       29.97S
PICKLE LAKE    PTSUNNY   48  43  81 VRB2      29.92S
DRYDEN         CLOUDY    50  45  81 NW5       29.99R
KENORA         PTSUNNY   50  46  87 NW8       30.02S
$$
                *** MANITOBA***

CITY           SKY/WX    TMP DP  RH WIND       PRES   REMARKS
BRANDON        CLOUDY    54  37  54 N14G24    30.14R
DAUPHIN        CLOUDY    54  34  47 W12       30.10F
ISLAND LAKE    PTSUNNY   48  36  61 NW6       30.02S
PILOT MOUND      N/A     52  36  54 NW7         N/A
THE PAS        MOSUNNY   61  37  41 W14       29.97F
THOMPSON       PTSUNNY   55  34  44 W8        29.93F
WINNIPEG       PTSUNNY   54  37  54 NW16G22   30.09R
LYNN LAKE      MOSUNNY   55  32  41 MISG      29.91S
CHURCHILL      PTSUNNY   46  37  71 NW3       29.83S
GILLAM         CLOUDY    52  36  54 SW10G18   29.92F
$$
                ***SASKATCHEWAN***

CITY           SKY/WX    TMP DP  RH WIND       PRES   REMARKS
ESTEVAN        CLOUDY    54  34  47 NW3       30.15S
KINDERSLEY     PTSUNNY   61  37  41 NW6       30.06
LLOYDMINSTER   PTSUNNY   59  36  41 NW3       30.03F
PRINCE ALBERT  PTSUNNY   59  37  44 W7        30.05S
REGINA         PTSUNNY   55  34  44 N6        30.12F
YORKTON        CLOUDY    54  34  47 W8        30.10F



USA.gov is the U.S. government's official web portal to all federal, state and local government web resources and services.